This is the latest recevied weather packets stored in our database for station/object W3EJE-13. If no packets are shown the sender has not sent any weather packets the latest 10 day(s).
| Time | Temp. | Humidity | Pressure | Rain* | Wind** | Luminosity | Snow |
|---|---|---|---|---|---|---|---|
| 1777897885 | 10.56° C | 70% | 1014.5 hPa | 0 mm | - | 49 W/m² | - |
| 1777897581 | 10.56° C | 72% | 1014.5 hPa | 0 mm | - | 49 W/m² | - |
| 1777897276 | 10° C | 73% | 1014.5 hPa | 0 mm | - | 48 W/m² | - |
| 1777896972 | 9.44° C | 75% | 1014.5 hPa | 0 mm | - | 47 W/m² | - |
| 1777896669 | 9.44° C | 77% | 1014.6 hPa | 0 mm | - | 46 W/m² | - |
| 1777896366 | 8.89° C | 77% | 1014.8 hPa | 0 mm | - | 45 W/m² | - |
| 1777896064 | 8.33° C | 79% | 1014.8 hPa | 0 mm | - | 61 W/m² | - |
| 1777895762 | 7.78° C | 82% | 1014.7 hPa | 0 mm | - | 83 W/m² | - |
| 1777895459 | 6.67° C | 83% | 1014.8 hPa | 0 mm | - | 69 W/m² | - |
| 1777895157 | 6.11° C | 84% | 1015 hPa | 0 mm | - | 50 W/m² | - |
| 1777894854 | 5.56° C | 87% | 1014.6 hPa | 0 mm | - | 42 W/m² | - |
| 1777894551 | 5.56° C | 90% | 1014.8 hPa | 0 mm | - | 39 W/m² | - |
| 1777894249 | 5° C | 91% | 1014.6 hPa | 0 mm | - | 36 W/m² | - |
| 1777893945 | 5° C | 91% | 1014.9 hPa | 0 mm | - | 34 W/m² | - |
| 1777893641 | 4.44° C | 92% | 1014.7 hPa | 0 mm | - | 33 W/m² | - |
| 1777893338 | 4.44° C | 92% | 1014.8 hPa | 0 mm | - | 38 W/m² | - |
| 1777893034 | 4.44° C | 91% | 1014.7 hPa | 0 mm | - | 32 W/m² | - |
| 1777892732 | 3.89° C | 91% | 1014.9 hPa | 0 mm | - | 24 W/m² | - |
| 1777892427 | 3.89° C | 91% | 1014.8 hPa | 0 mm | - | 21 W/m² | - |
| 1777892123 | 3.89° C | 92% | 1014.7 hPa | 0 mm | - | 19 W/m² | - |
| 1777891821 | 3.89° C | 92% | 1014.6 hPa | 0 mm | - | 20 W/m² | - |
| 1777891518 | 3.33° C | 92% | 1014.8 hPa | 0 mm | - | 14 W/m² | - |
| 1777891214 | 3.33° C | 92% | 1014.8 hPa | 0 mm | - | 11 W/m² | - |
| 1777890913 | 3.89° C | 92% | 1014.8 hPa | 0 mm | - | 11 W/m² | - |
| 1777890609 | 3.89° C | 92% | 1014.8 hPa | 0 mm | - | 9 W/m² | - |
* Rain latest hour (hover to see other rain measurements)
** Current wind speed in m/s (hover to see current wind gust speed)